Flag for Canada Weather past 2 weeks in Saguenay, Quebec, Canada

Now
61 °F

Cool.


Feels Like: 61 °F
Forecast: 56 / 67 °F
Wind: 5 mph from West

Location: Jonquiere Airport

Current Time: Aug 5, 2015 at 8:27:33 AM

Latest Report: Aug 5, 2015 at 8:00 AM


Visibility: N/A

Pressure: 29.78 "Hg

Humidity: 85%

Dew point: 56 °F

Location of SaguenayLocation

Historic Weather in Saguenay — Graph

°F

Saguenay temperature yesterday

Maximum temperature yesterday: 72 °F (at 1:00 PM)
Minimum temperature yesterday: 56 °F (at 4:00 AM)
Average temperature yesterday: 64 °F

Past Weeks' High & Low Weather Summary

 TemperatureHumidityPressure
High82 °F (Jul 29, 3:00 PM)100% (Jul 24, 7:00 AM)30.07 "Hg (Jul 24, 7:00 AM)
Low51 °F (Jul 25, 5:00 AM)35% (Jul 29, 5:00 PM)29.47 "Hg (Jul 21, 2:00 PM)
Average64 °F81%29.78 "Hg
* Reported Jul 21 7:00 AM — Aug 5 7:00 AM, Saguenay, Weather by CustomWeather, © 2015

Note: Actual official high and low records may vary slightly from our data, if they occured in-between our weather recording intervals... More about our weather records

Advertising

Saguenay weather history for previous 24 hours

 ConditionsComfort  
Time TempWeatherWind HumidityBarometerVisibility
7:00 AM
Wed, Aug 5
58 °FCool.6 mph95%29.78 "HgN/A
6:00 AM59 °FCool.3 mph90%29.78 "HgN/A
5:00 AM59 °FCool.9 mph90%29.77 "HgN/A
4:00 AM59 °FCool.8 mph90%29.76 "HgN/A
3:00 AM58 °FCool.7 mph91%29.75 "HgN/A
2:00 AM59 °FCool.9 mph90%29.75 "HgN/A
1:00 AM60 °FCool.8 mph89%29.75 "HgN/A
12:00 AM58 °FCool.1 mph93%29.76 "HgN/A
11:00 PM
Tue, Aug 4
60 °FCool.5 mph91%29.75 "HgN/A
10:00 PM60 °FCool.7 mph89%29.75 "HgN/A
9:00 PM61 °FCool.8 mph90%29.75 "HgN/A
8:00 PM62 °FMild.8 mph87%29.75 "HgN/A
7:00 PM64 °FMild.8 mph88%29.74 "HgN/A
6:00 PM64 °FMild.3 mph92%29.72 "HgN/A
5:00 PM69 °FMild.6 mph72%29.72 "HgN/A
4:00 PM71 °FMild.13 mph62%29.72 "HgN/A
3:00 PM70 °FMild.15 mph57%29.72 "HgN/A
2:00 PM71 °FMild.6 mph69%29.70 "HgN/A
1:00 PM72 °FMild.5 mph77%29.71 "HgN/A
12:00 PM68 °FMild.3 mph76%29.73 "HgN/A
11:00 AM69 °FMild.2 mph73%29.74 "HgN/A
10:00 AM68 °FMild.3 mph75%29.75 "HgN/A
9:00 AM66 °FMild.3 mph79%29.75 "HgN/A
8:00 AM63 °FMild.3 mph92%29.74 "HgN/A
Weather by CustomWeather, © 2015

See weather overviewHow to use our weather pages